Location: Bathurst
(33.4193°S, 149.5775°E)
Time: 04:52:38
(UTC+11:00)

X-37B - Visible Passes

Search period start: 28 January 2021 00:00
Search period end: 07 February 2021 00:00
Orbit: 383 x 391 km, 45.1° (Epoch: 22 January)

Date Brightness Start Highest point End Pass type
(mag) Time Alt. Az. Time Alt. Az. Time Alt. Az.
28 Jan 4.2 03:18:00 10° ESE 03:18:00 10° ESE 03:18:04 10° ESE visible
28 Jan 2.9 04:50:17 14° SW 04:51:46 18° SSW 04:54:06 10° SSE visible
29 Jan 3.1 03:54:23 21° SSE 03:54:23 21° SSE 03:56:01 10° SE visible
29 Jan 3.5 05:29:29 10° SSW 05:30:36 11° S 05:31:44 10° SSE visible
30 Jan 3.3 04:30:45 12° SW 04:31:54 14° SSW 04:33:39 10° SSE visible
31 Jan 3.9 03:34:51 13° SSE 03:34:51 13° SSE 03:35:35 10° SSE visible
31 Jan 3.7 05:10:03 10° SSW 05:10:50 11° S 05:11:37 10° SSE visible
01 Feb 3.6 04:11:16 11° SSW 04:12:06 11° S 04:13:14 10° SSE visible
01 Feb 3.6 05:48:04 10° SSW 05:49:46 13° SSE 05:51:28 10° SE visible
02 Feb 3.7 04:49:57 10° SSW 04:51:04 11° S 04:52:11 10° SSE visible
03 Feb 3.9 03:52:00 11° S 03:52:19 11° S 03:53:08 10° SSE visible
03 Feb 3.4 05:27:35 10° SSW 05:29:55 18° SSE 05:32:13 10° ESE visible
04 Feb 3.7 04:29:31 10° SSW 04:31:15 14° SSE 04:32:59 10° SE visible
05 Feb 4.2 03:33:18 11° SSE 03:33:18 11° SSE 03:33:41 10° SSE visible
05 Feb 2.8 05:07:10 10° SW 05:09:59 26° SSE 05:12:47 10° E visible
06 Feb 3.3 04:10:32 16° S 04:11:24 18° SSE 04:13:43 10° ESE visible
06 Feb 0.6 05:45:07 10° WSW 05:48:22 85° NNW 05:51:35 10° NE visible
